Location: Spring Creek
(38.2870°N, 100.2160°W)
Time: 03:46:36
(UTC+00:00)

SeaSat 1 - Pass Details

Date: 08 May 2021
Orbit: 745 x 746 km, 108.0° (Epoch: 22 June)

Event Time Altitude Azimuth Distance (km) Brightness Sun altitude
Rises 06:55:16 0° 19° (NNE) 3,196 6.7 -34.4°
Reaches altitude 10° 06:57:36 10° 14° (NNE) 2,269 5.7 -34.3°
Enters shadow 07:00:34 34° 352° (N) 1,230 3.9 -34.3°
